7 * 24
多渠道服务支持
STARLINK-35505是美国太空探索技术公司(SpaceX)“星链”卫星互联网星座项目的一颗量产低轨通信卫星,于2025年11月6日发射入轨。作为星链扩容部署的组成部分,它运行在近地轨道,搭载Ku/Ka波段通信载荷与光学星间链路,依托相控阵技术提供高速低延迟宽带服务,可补充全球网络覆盖,尤其改善偏远地区互联网接入能力,延续星链卫星自主避撞、末期主动离轨焚毁的设计规范,服务全球互联通信网络构建。
美国
(US)
| 数据来源 | 国际轨道数据 |
| 星历时间: | 2026-03-14T00:09:03+0800 15小时前 查看轨道信息 |
| 半长轴: | 6861.136km |
| 偏心率: | 0.0001957 |
| 轨道倾角: | 43.001° |
| 近地点辐角 | 267.802° |
| 升交点赤经 | 190.012° |
| 平近点角 | 92.261° |
| 近地点: | 481.656km |
| 远地点: | 484.342km |
| 周期: | 94.266分钟 |
| 每日圈数: | 15.275968 |